[[{"header":{"parameterUnit":"m.s-1","parameterCategory":1,"la1":30.2991,"la2":30.254,"lo1":-89.0895,"lo2":-89.0444,"dx":0.0017,"dy":0.0017,"nx":28,"ny":28,"refTime":"2022-11-18T15:00:00:Z","depth":0,"parameterNumber":2,"parameterNumberName":"U-component_of_WINDS"},"data":[0,0,0,0,0,0,0,0,0,0,0,0,0,0,0,0,0,0,0,0,0,0,0,0,0,0,0,0,0,0,0,0,0,0,0,0,0,0,0,0,0,0,0,0,0,0,0,0,0,0,0,0,0,0,0,0,0,0,-5.0445,-5.0446,0,-5.0533,-5.0534,-5.0535,-5.0402,-5.0398,-5.0393,-5.0389,-5.0479,-5.0485,-5.0492,0,0,0,0,0,0,0,0,0,0,0,0,0,-5.016,-5.0166,-5.0445,-5.0446,-5.0447,-5.0533,-5.0534,-5.0536,-5.0403,-5.0397,-5.0392,-5.0386,-5.0476,-5.0484,-5.0492,0,0,0,0,0,0,0,0,0,0,0,0,0,-5.027,-5.0168,-5.0445,-5.0392,-5.0388,-5.0533,-5.0534,-5.0536,-5.0404,-5.0397,-5.039,-5.0384,-5.0474,-5.0484,-5.0494,-5.0695,0,0,-5.0524,-5.0529,0,0,0,0,0,0,0,0,-5.0264,-5.028,-5.0398,-5.0395,-5.0391,-5.045,-5.0467,-5.0589,-5.0406,-5.0398,-5.0388,-5.038,-5.0475,-5.0484,-5.0516,-5.0699,-5.0703,-5.0525,-5.0531,-5.0536,-5.0539,0,0,0,0,0,0,0,-5.0256,-5.0276,-5.048,-5.04,-5.0396,-5.0363,-5.037,-5.0489,-5.0474,-5.0398,-5.0389,-5.0401,-5.0471,-5.0507,-5.0517,-5.0704,-5.0525,-5.0534,-5.054,-5.0544,-5.1056,-5.1063,0,0,0,0,0,0,-5.0255,-5.027,-5.0477,-5.0482,-5.0309,-5.0373,-5.0382,-5.0438,-5.0473,-5.0471,-5.0407,-5.0394,-5.0493,-5.0506,-5.052,-5.0757,-5.0536,-5.0545,-5.0551,-5.1049,-5.1058,-5.1066,0,0,0,0,0,0,-5.025,-5.0275,-5.0473,-5.0374,-5.0397,-5.0386,-5.0449,-5.0443,-5.0478,-5.0479,-5.0476,-5.0446,-5.0488,-5.0506,-5.0652,-5.0759,-5.055,-5.0559,-5.104,-5.1051,-5.1062,-5.1235,0,0,0,0,0,0,-5.0242,-5.0274,-5.0351,-5.0377,-5.0403,-5.0606,-5.0456,-5.045,-5.0496,-5.0481,-5.0515,-5.0514,-5.0484,-5.0638,-5.0662,-5.0769,-5.0567,-5.103,-5.1045,-5.1058,-5.122,-5.1251,-5.1278,0,0,0,0,0,-5.0232,-5.0396,-5.0356,-5.0381,-5.0499,-5.0612,-5.0627,-5.0589,-5.0505,-5.0582,-5.0582,-5.0513,-5.0743,-5.0654,-5.068,-5.0792,-5.1023,-5.1041,-5.1057,-5.1207,-5.1245,-5.1277,0,0,0,0,0,0,-5.0384,-5.0399,-5.0354,-5.0531,-5.0571,-5.0589,-5.0685,-5.0631,-5.0695,-5.0678,-5.0628,-5.0637,-5.0795,-5.0807,-5.0708,-5.0988,-5.0869,-5.0892,-5.0974,-5.101,-5.1038,-5.1032,-5.0575,0,0,0,0,0,-5.0438,-5.0529,-5.0537,-5.0692,-5.0715,-5.0697,-5.0745,-5.0712,-5.0752,-5.0768,-5.0779,-5.082,-5.0901,-5.0956,-5.1031,-5.1221,-5.1226,-5.131,-5.1339,-5.1362,-5.1383,-5.1484,-5.1521,-5.1122,-5.1122,-5.1121,0,0,-5.055,-5.057,-5.063,-5.0723,-5.0751,-5.0846,-5.0712,-5.0819,-5.0889,-5.0784,-5.0924,-5.0933,-5.0975,-5.1144,-5.1219,-5.116,-5.1494,-5.1384,-5.1403,-5.1411,-5.1505,-5.1543,-5.1576,-5.1133,-5.1131,-5.1129,0,0,-5.0804,-5.0828,-5.096,-5.099,-5.1033,-5.1019,-5.1051,-5.1078,-5.108,-5.1219,-5.1142,-5.1224,-5.1365,-5.1398,-5.1434,-5.1698,-5.1636,-5.1724,-5.1875,-5.1974,-5.2005,-5.2033,-5.2127,-5.2162,-5.1745,-5.1745,-5.1745,0,-5.0938,-5.1079,-5.1034,-5.1146,-5.1189,-5.1099,-5.1231,-5.1262,-5.1328,-5.1359,-5.1292,-5.1467,-5.1489,-5.1664,-5.1728,-5.176,-5.1794,-5.1721,-5.2004,-5.2032,-5.2057,-5.2146,-5.2182,-5.1755,-5.1754,-5.1753,-5.1752,0,-5.1242,-5.134,-5.1442,-5.1507,-5.1561,-5.1683,-5.1656,-5.1716,-5.1679,-5.1672,-5.1814,-5.1837,-5.1915,-5.1954,-5.1918,-5.2124,-5.2085,-5.2012,-5.1892,-5.2106,-5.2189,-5.2223,-5.177,-5.1767,-5.1763,-5.1761,0,0,-5.1595,-5.1633,-5.1671,-5.1699,-5.1739,-5.1814,-5.1931,-5.2007,-5.2059,-5.2107,-5.2204,-5.2325,-5.2257,-5.2297,-5.2264,-5.235,-5.2558,-5.2266,-5.2266,-5.2319,-5.2785,-5.2841,-5.2881,-5.2516,-5.2523,-5.2528,-5.2782,0,-5.1848,-5.205,-5.2013,-5.2211,-5.2301,-5.2215,-5.2317,-5.2352,-5.2349,-5.2425,-5.242,-5.2507,-5.2411,-5.2434,-5.2516,-5.2516,-5.2651,-5.2496,-5.2606,-5.261,-5.2599,-5.2925,-5.2984,-5.3223,-5.2814,-5.282,-5.2824,0,-5.217,-5.223,-5.2436,-5.2461,-5.2497,-5.259,-5.2656,-5.2729,-5.2767,-5.2758,-5.2803,-5.2753,-5.2869,-5.2746,-5.2905,-5.2801,-5.2843,-5.2849,-5.2857,-5.2867,-5.2731,-5.2943,-5.3298,-5.3334,-5.2874,-5.287,-5.2867,0,-5.2407,-5.2539,-5.2679,-5.2706,-5.2738,-5.2805,-5.2821,-5.2852,-5.29,-5.2957,-5.2987,-5.3057,-5.3096,-5.3151,-5.3121,-5.3035,-5.3285,-5.316,-5.3281,-5.3282,-5.3339,-5.3336,-5.3706,-5.3365,-5.3365,-5.3364,-5.3363,0,-5.2694,-5.2824,-5.2786,-5.2872,-5.3015,-5.297,-5.3112,-5.3118,-5.3146,-5.3231,-5.3161,-5.3243,-5.3198,-5.3276,-5.3254,-5.3388,-5.3406,-5.3402,-5.3395,-5.3409,-5.341,-5.3437,-5.3419,-5.3374,-5.3371,-5.337,-5.3368,0,-5.2983,-5.2963,-5.311,-5.3129,-5.3136,-5.324,-5.3255,-5.3336,-5.3326,-5.3435,-5.3458,-5.3444,-5.3533,-5.3508,-5.3604,-5.3588,-5.3758,-5.3729,-5.3746,-5.3739,-5.3861,-5.3851,-5.4262,-5.4314,-5.394,-5.3944,-5.3947,0,-5.3168,-5.3266,-5.3294,-5.3346,-5.3368,-5.3454,-5.3501,-5.3461,-5.3513,-5.3563,-5.3637,-5.3719,-5.3783,-5.3927,-5.3925,-5.3998,-5.397,-5.4109,-5.3981,-5.3992,-5.3973,-5.3968,-5.3977,-5.4136,-5.414,-5.4143,-5.4146,0,-5.3498,-5.3483,-5.3555,-5.3624,-5.3683,-5.3736,-5.3781,-5.3828,-5.379,-5.3853,-5.3942,-5.3991,-5.4088,-5.417,-5.4236,-5.4252,-5.4194,-5.4187,-5.4218,-5.4234,-5.424,-5.4239,-5.3817,-5.4178,-5.4174,-5.4172,-5.417,-5.4169,-5.3741,-5.3823,-5.3856,-5.3939,-5.3968,-5.4012,-5.4089,-5.4089,-5.4162,-5.4238,-5.4209,-5.4312,-5.4345,-5.4428,-5.4452,-5.4531,-5.4478,-5.4524,-5.4536,-5.4548,-5.4564,-5.4227,-5.4543,-5.4542,-5.4541,-5.454,-5.454,0,-5.4067,-5.4084,-5.416,-5.4226,-5.4291,-5.4229,-5.4276,-5.4334,-5.4425,-5.4461,-5.4525,-5.4627,-5.4706,-5.471,-5.4783,-5.4846,-5.4821,-5.4866,-5.4862,-5.4866,-5.4607,-5.4572,-5.4885,-5.4885,-5.4885,-5.4885,-5.4885,-5.4885,-5.4245,-5.4381,-5.437,-5.452,-5.4535,-5.4635,-5.4667,-5.4707,-5.4735,-5.4853,-5.4918,-5.4919,-5.4943,-5.5017,-5.5086,-5.5085,-5.5116,-5.5172,-5.5161,-5.4919,-5.4885,-5.4852,-5.4819,-5.5179,-5.5179,-5.5414,-5.5416,-5.5417]},{"header":{"parameterUnit":"m.s-1","parameterCategory":1,"la1":30.2991,"la2":30.254,"lo1":-89.0895,"lo2":-89.0444,"dx":0.0017,"dy":0.0017,"nx":28,"ny":28,"refTime":"2022-11-18T15:00:00:Z","depth":0,"parameterNumber":3,"parameterNumberName":"V-component_of_WINDS"},"data":[0,0,0,0,0,0,0,0,0,0,0,0,0,0,0,0,0,0,0,0,0,0,0,0,0,0,0,0,0,0,0,0,0,0,0,0,0,0,0,0,0,0,0,0,0,0,0,0,0,0,0,0,0,0,0,0,0,0,-4.6667,-4.6667,0,-4.6646,-4.6646,-4.6645,-4.6548,-4.6546,-4.6543,-4.6541,-4.6521,-4.6522,-4.6524,0,0,0,0,0,0,0,0,0,0,0,0,0,-4.6625,-4.6626,-4.6668,-4.6667,-4.6667,-4.6646,-4.6646,-4.6645,-4.6548,-4.6546,-4.6543,-4.654,-4.652,-4.6522,-4.6524,0,0,0,0,0,0,0,0,0,0,0,0,0,-4.6628,-4.6627,-4.6668,-4.6616,-4.6611,-4.6646,-4.6646,-4.6645,-4.6549,-4.6546,-4.6542,-4.6539,-4.6519,-4.6522,-4.6524,-4.6607,0,0,-4.6531,-4.6532,0,0,0,0,0,0,0,0,-4.6628,-4.6629,-4.6624,-4.662,-4.6614,-4.6596,-4.6623,-4.6633,-4.655,-4.6573,-4.6541,-4.6537,-4.6549,-4.6548,-4.6552,-4.6606,-4.6605,-4.6532,-4.6533,-4.6534,-4.6535,0,0,0,0,0,0,0,-4.6628,-4.663,-4.6659,-4.6624,-4.6618,-4.6594,-4.6591,-4.6624,-4.658,-4.657,-4.6563,-4.6562,-4.6545,-4.655,-4.6551,-4.6605,-4.6532,-4.6534,-4.6535,-4.6536,-4.6725,-4.6728,0,0,0,0,0,0,-4.6635,-4.663,-4.666,-4.6658,-4.6613,-4.6598,-4.6594,-4.6605,-4.6579,-4.6572,-4.6565,-4.6557,-4.6547,-4.6548,-4.655,-4.6644,-4.6534,-4.6536,-4.6538,-4.6721,-4.6726,-4.673,0,0,0,0,0,0,-4.6634,-4.6638,-4.666,-4.6642,-4.6643,-4.6602,-4.6616,-4.6607,-4.6611,-4.6575,-4.6567,-4.6578,-4.6545,-4.6546,-4.6593,-4.6642,-4.6537,-4.6539,-4.6717,-4.6723,-4.6728,-4.6834,0,0,0,0,0,0,-4.6633,-4.6638,-4.667,-4.6644,-4.6645,-4.6705,-4.6619,-4.6609,-4.6615,-4.6605,-4.6585,-4.6578,-4.6542,-4.659,-4.6596,-4.6643,-4.6541,-4.6712,-4.672,-4.6726,-4.6826,-4.6842,-4.6856,0,0,0,0,0,-4.6632,-4.6701,-4.6672,-4.6676,-4.6683,-4.6708,-4.6708,-4.6665,-4.662,-4.665,-4.6627,-4.6579,-4.6636,-4.6596,-4.6601,-4.665,-4.6709,-4.6718,-4.6725,-4.6819,-4.6839,-4.6856,0,0,0,0,0,0,-4.6735,-4.6697,-4.6664,-4.6727,-4.6721,-4.6691,-4.6729,-4.6688,-4.6695,-4.6686,-4.6632,-4.6628,-4.6682,-4.6671,-4.6627,-4.6728,-4.6664,-4.6674,-4.6733,-4.6752,-4.6767,-4.6768,-4.6543,0,0,0,0,0,-4.6765,-4.6788,-4.6754,-4.6812,-4.6811,-4.6771,-4.678,-4.6747,-4.6739,-4.6736,-4.6716,-4.6711,-4.6727,-4.6739,-4.6753,-4.6824,-4.6817,-4.686,-4.6875,-4.6888,-4.6896,-4.6932,-4.695,-4.6756,-4.6756,-4.6756,0,0,-4.6827,-4.6809,-4.6827,-4.6832,-4.6824,-4.6849,-4.6769,-4.68,-4.6817,-4.6741,-4.6783,-4.6769,-4.6759,-4.6818,-4.6843,-4.681,-4.6949,-4.6898,-4.6909,-4.691,-4.6942,-4.696,-4.6977,-4.6762,-4.6761,-4.676,0,0,-4.6952,-4.6942,-4.6989,-4.6982,-4.697,-4.6942,-4.6954,-4.693,-4.6917,-4.6958,-4.6901,-4.6922,-4.6952,-4.6946,-4.6948,-4.707,-4.7026,-4.7076,-4.7155,-4.719,-4.7206,-4.7219,-4.7261,-4.7277,-4.7085,-4.7085,-4.7086,0,-4.7031,-4.7066,-4.7018,-4.7051,-4.7055,-4.6986,-4.7032,-4.7028,-4.7022,-4.7026,-4.6989,-4.7024,-4.7013,-4.7069,-4.7098,-4.7102,-4.7113,-4.7078,-4.7207,-4.722,-4.7232,-4.7271,-4.7288,-4.7092,-4.7091,-4.709,-4.709,0,-4.7163,-4.7188,-4.7227,-4.7221,-4.7229,-4.7269,-4.7227,-4.7241,-4.7207,-4.7184,-4.7226,-4.721,-4.7218,-4.723,-4.7198,-4.7281,-4.7261,-4.7217,-4.7151,-4.7257,-4.7293,-4.7308,-4.71,-4.7098,-4.7096,-4.7095,0,0,-4.7353,-4.7318,-4.7333,-4.7329,-4.731,-4.7329,-4.7366,-4.7372,-4.7385,-4.7383,-4.7411,-4.7438,-4.7396,-4.7398,-4.7365,-4.7396,-4.7492,-4.7347,-4.7346,-4.7373,-4.7581,-4.7613,-4.7632,-4.7463,-4.7465,-4.7468,-4.7581,0,-4.7471,-4.753,-4.7487,-4.7554,-4.7576,-4.7511,-4.7542,-4.7535,-4.7514,-4.7529,-4.7506,-4.7525,-4.7469,-4.747,-4.7498,-4.7474,-4.7533,-4.7466,-4.7488,-4.749,-4.7491,-4.7651,-4.7685,-4.7793,-4.7595,-4.7598,-4.76,0,-4.7617,-4.7619,-4.7688,-4.7663,-4.7671,-4.77,-4.7702,-4.7718,-4.7707,-4.769,-4.7691,-4.765,-4.7683,-4.762,-4.7666,-4.7621,-4.7628,-4.7618,-4.7621,-4.762,-4.755,-4.7653,-4.7827,-4.7843,-4.7622,-4.762,-4.7618,0,-4.7746,-4.7767,-4.781,-4.7809,-4.7782,-4.7803,-4.7793,-4.7779,-4.7785,-4.7788,-4.7791,-4.7798,-4.7802,-4.7808,-4.7769,-4.7727,-4.7819,-4.7753,-4.7805,-4.7806,-4.7826,-4.7825,-4.8002,-4.7834,-4.7834,-4.7833,-4.7833,0,-4.7882,-4.7926,-4.7868,-4.7894,-4.7941,-4.7892,-4.794,-4.7923,-4.7911,-4.7933,-4.7878,-4.79,-4.7848,-4.7865,-4.7835,-4.7876,-4.7879,-4.7865,-4.7857,-4.7869,-4.7871,-4.7872,-4.7863,-4.7837,-4.7837,-4.7836,-4.7835,0,-4.8034,-4.7997,-4.8039,-4.8009,-4.8003,-4.8039,-4.8013,-4.8036,-4.8011,-4.804,-4.8044,-4.8005,-4.8022,-4.7984,-4.7995,-4.7975,-4.8034,-4.8014,-4.8037,-4.803,-4.8084,-4.8079,-4.8267,-4.8288,-4.8108,-4.811,-4.8111,0,-4.8122,-4.8154,-4.8127,-4.8137,-4.813,-4.8147,-4.8153,-4.8106,-4.8114,-4.8104,-4.8128,-4.814,-4.8147,-4.8177,-4.815,-4.8158,-4.8137,-4.8202,-4.8138,-4.8149,-4.8136,-4.8134,-4.8136,-4.8215,-4.8217,-4.8219,-4.8221,0,-4.8282,-4.8262,-4.8272,-4.8275,-4.8283,-4.8284,-4.8281,-4.8293,-4.8242,-4.8255,-4.827,-4.8275,-4.8286,-4.8298,-4.8301,-4.829,-4.8247,-4.8241,-4.8253,-4.8266,-4.8277,-4.827,-4.8071,-4.8237,-4.8235,-4.8234,-4.8233,-4.8232,-4.8404,-4.8428,-4.8413,-4.8425,-4.8418,-4.8416,-4.8435,-4.8413,-4.8424,-4.8429,-4.8401,-4.8422,-4.841,-4.8408,-4.8402,-4.8418,-4.8389,-4.8407,-4.8411,-4.8416,-4.8424,-4.8276,-4.8419,-4.8418,-4.8418,-4.8417,-4.8417,0,-4.8559,-4.8546,-4.8558,-4.8554,-4.8564,-4.8522,-4.8516,-4.8527,-4.8547,-4.8538,-4.8546,-4.8563,-4.8575,-4.8549,-4.8556,-4.8574,-4.8554,-4.8577,-4.8575,-4.8573,-4.8451,-4.8439,-4.8593,-4.8593,-4.8593,-4.8593,-4.8593,-4.8593,-4.8641,-4.868,-4.8658,-4.8693,-4.8679,-4.8698,-4.8698,-4.8696,-4.8689,-4.8711,-4.8719,-4.8702,-4.8686,-4.8692,-4.8701,-4.8692,-4.8697,-4.8727,-4.8712,-4.8599,-4.8581,-4.8565,-4.8553,-4.8729,-4.8729,-4.8832,-4.8833,-4.8834]}]]